| time (UTC) | temp C | wind direction | speed KPH | gust KPH | rain 1hr cm | rain 24hr cm | rain mn cm | humidity % | barometer mb |
| 20260901063527 | 17 | 132 | 1.6 | 4.8 | 0.05 | 0.05 | 0.05 | 94 | 1014.3 |
| 20260901063045 | 17 | 130 | 1.6 | 3.2 | 0.05 | 0.05 | 0.05 | 94 | 1014.4 |
| 20260901062526 | 17 | 129 | 0.0 | 3.2 | 0.05 | 0.05 | 0.05 | 94 | 1014.5 |
| 20260901062026 | 17 | 129 | 0.0 | 6.4 | 0.05 | 0.05 | 0.05 | 94 | 1014.5 |
| 20260901061526 | 17 | 129 | 3.2 | 6.4 | 0.05 | 0.05 | 0.05 | 94 | 1014.5 |
| 20260901061025 | 17 | 151 | 1.6 | 4.8 | 0.05 | 0.05 | 0.05 | 94 | 1014.6 |
| 20260901060527 | 17 | 134 | 1.6 | 4.8 | 0.05 | 0.05 | 0.05 | 94 | 1014.7 |
| 20260901060024 | 17 | 142 | 1.6 | 6.4 | 0.03 | 0.03 | 0.03 | 94 | 1014.7 |
| 20260901055524 | 17 | 138 | 1.6 | 6.4 | 0.03 | 0.03 | 0.03 | 94 | 1014.6 |
| 20260901055024 | 17 | 136 | 3.2 | 6.4 | 0.03 | 0.03 | 0.03 | 94 | 1014.7 |
| 20260901054523 | 17 | 143 | 3.2 | 4.8 | 0.00 | 0.00 | 0.00 | 94 | 1014.7 |
| 20260901054022 | 17 | 143 | 3.2 | 6.4 | 0.00 | 0.00 | 0.00 | 94 | 1014.8 |
| 20260901053521 | 17 | 128 | 3.2 | 6.4 | 0.00 | 0.00 | 0.00 | 94 | 1014.8 |
| 20260901053021 | 17 | 111 | 1.6 | 4.8 | 0.00 | 0.00 | 0.00 | 94 | 1014.9 |
| 20260901052520 | 17 | 130 | 0.0 | 0.0 | 0.00 | 0.00 | 0.00 | 94 | 1015.0 |
| 20260901052024 | 17 | 130 | 0.0 | 0.0 | 0.00 | 0.00 | 0.00 | 94 | 1015.1 |
| 20260901051520 | 17 | 130 | 0.0 | 0.0 | 0.00 | 0.00 | 0.00 | 94 | 1015.1 |
| 20260901051020 | 17 | 132 | 0.0 | 3.2 | 0.00 | 0.00 | 0.00 | 94 | 1015.2 |
| 20260901050522 | 17 | 132 | 0.0 | 4.8 | 0.00 | 0.00 | 0.00 | 94 | 1015.2 |
| 20260901050020 | 17 | 133 | 0.0 | 4.8 | 0.00 | 0.00 | 0.00 | 94 | 1015.4 |
| 20260901045520 | 17 | 157 | 1.6 | 6.4 | 0.00 | 0.00 | 0.00 | 94 | 1015.4 |
| 20260901045019 | 17 | 171 | 1.6 | 6.4 | 0.00 | 0.00 | 0.00 | 94 | 1015.4 |
| 20260901044528 | 17 | 140 | 0.0 | 4.8 | 0.00 | 0.00 | 0.00 | 94 | 1015.4 |
| 20260901044018 | 17 | 140 | 3.2 | 6.4 | 0.00 | 0.00 | 0.00 | 94 | 1015.3 |
| 20260901043519 | 17 | 140 | 3.2 | 6.4 | 0.00 | 0.00 | 0.00 | 94 | 1015.2 |
| 20260901043018 | 17 | 132 | 3.2 | 6.4 | 0.00 | 0.00 | 0.00 | 94 | 1015.0 |
| 20260901042516 | 17 | 135 | 0.0 | 3.2 | 0.00 | 0.00 | 0.00 | 94 | 1015.1 |
| 20260901042016 | 17 | 135 | 0.0 | 3.2 | 0.00 | 0.00 | 0.00 | 94 | 1015.2 |
| 20260901041525 | 17 | 143 | 0.0 | 0.0 | 0.00 | 0.00 | 0.00 | 94 | 1015.2 |
| 20260901041015 | 17 | 143 | 0.0 | 0.0 | 0.00 | 0.00 | 0.00 | 93 | 1015.3 |
| 20260901040514 | 17 | 143 | 0.0 | 1.6 | 0.00 | 0.00 | 0.00 | 93 | 1015.4 |
| 20260901040014 | 17 | 143 | 0.0 | 1.6 | 0.00 | 0.00 | 0.00 | 93 | 1015.3 |
| 20260901035513 | 17 | 143 | 0.0 | 3.2 | 0.00 | 0.05 | 0.00 | 93 | 1015.3 |
| 20260901035013 | 17 | 143 | 1.6 | 4.8 | 0.00 | 0.05 | 0.00 | 93 | 1015.3 |
| 20260901034528 | 17 | 143 | 1.6 | 4.8 | 0.00 | 0.05 | 0.00 | 93 | 1015.2 |
| 20260901034012 | 17 | 144 | 1.6 | 4.8 | 0.00 | 0.05 | 0.00 | 93 | 1015.2 |
| 20260901033512 | 17 | 145 | 1.6 | 3.2 | 0.00 | 0.05 | 0.00 | 93 | 1015.3 |
| 20260901033012 | 17 | 145 | 0.0 | 0.0 | 0.00 | 0.05 | 0.00 | 93 | 1015.4 |
| 20260901032512 | 17 | 145 | 0.0 | 0.0 | 0.00 | 0.05 | 0.00 | 93 | 1015.4 |
| 20260901032015 | 17 | 145 | 0.0 | 0.0 | 0.00 | 0.05 | 0.00 | 93 | 1015.4 |
| 20260901031514 | 17 | 145 | 0.0 | 0.0 | 0.00 | 0.05 | 0.00 | 93 | 1015.4 |
| 20260901031009 | 17 | 145 | 0.0 | 1.6 | 0.00 | 0.05 | 0.00 | 93 | 1015.5 |
| 20260901030509 | 17 | 145 | 0.0 | 1.6 | 0.00 | 0.05 | 0.00 | 93 | 1015.6 |
| 20260901030012 | 17 | 145 | 0.0 | 3.2 | 0.00 | 0.05 | 0.00 | 93 | 1015.5 |
| 20260901025509 | 17 | 145 | 0.0 | 4.8 | 0.00 | 0.08 | 0.00 | 93 | 1015.6 |
| 20260901025011 | 17 | 142 | 0.0 | 4.8 | 0.00 | 0.08 | 0.00 | 93 | 1015.6 |
| 20260901024509 | 17 | 142 | 1.6 | 4.8 | 0.00 | 0.08 | 0.00 | 93 | 1015.6 |
| 20260901024010 | 17 | 140 | 0.0 | 6.4 | 0.00 | 0.08 | 0.00 | 93 | 1015.5 |
| 20260901023509 | 17 | 144 | 3.2 | 8.0 | 0.00 | 0.08 | 0.00 | 93 | 1015.5 |
| 20260901023008 | 17 | 134 | 1.6 | 4.8 | 0.00 | 0.08 | 0.00 | 93 | 1015.6 |
| 20260901022509 | 17 | 131 | 1.6 | 6.4 | 0.00 | 0.08 | 0.00 | 93 | 1015.6 |
| 20260901022012 | 17 | 134 | 3.2 | 6.4 | 0.00 | 0.08 | 0.00 | 93 | 1015.6 |
| 20260901021508 | 17 | 130 | 3.2 | 6.4 | 0.00 | 0.08 | 0.00 | 93 | 1015.7 |
| 20260901021008 | 17 | 126 | 3.2 | 4.8 | 0.00 | 0.08 | 0.00 | 93 | 1015.8 |
| 20260901020511 | 17 | 102 | 1.6 | 3.2 | 0.00 | 0.08 | 0.00 | 93 | 1016.0 |
| 20260901020007 | 17 | 98 | 0.0 | 3.2 | 0.00 | 0.08 | 0.00 | 93 | 1016.1 |
| 20260901015507 | 17 | 98 | 0.0 | 4.8 | 0.00 | 0.08 | 0.00 | 93 | 1016.3 |
| 20260901015007 | 17 | 98 | 0.0 | 4.8 | 0.00 | 0.08 | 0.00 | 93 | 1016.2 |
| 20260901014507 | 17 | 130 | 1.6 | 3.2 | 0.00 | 0.08 | 0.00 | 93 | 1016.2 |
| 20260901014007 | 17 | 133 | 0.0 | 3.2 | 0.00 | 0.08 | 0.00 | 93 | 1016.1 |
| 20260901013507 | 17 | 133 | 0.0 | 4.8 | 0.00 | 0.08 | 0.00 | 92 | 1016.1 |
| 20260901013006 | 17 | 130 | 1.6 | 4.8 | 0.00 | 0.08 | 0.00 | 92 | 1016.1 |
| 20260901012507 | 17 | 136 | 1.6 | 4.8 | 0.00 | 0.08 | 0.00 | 92 | 1016.2 |
| 20260901012006 | 17 | 132 | 0.0 | 8.0 | 0.00 | 0.08 | 0.00 | 92 | 1016.2 |
| 20260901011508 | 17 | 150 | 1.6 | 8.0 | 0.00 | 0.08 | 0.00 | 92 | 1016.1 |
| 20260901011006 | 17 | 124 | 1.6 | 4.8 | 0.00 | 0.08 | 0.00 | 92 | 1016.0 |
| 20260901010506 | 17 | 124 | 1.6 | 4.8 | 0.00 | 0.08 | 0.00 | 92 | 1016.0 |
| 20260901010012 | 17 | 115 | 1.6 | 3.2 | 0.00 | 0.08 | 0.00 | 92 | 1015.9 |
| 20260901005506 | 17 | 113 | 0.0 | 3.2 | 0.00 | 0.08 | 0.00 | 92 | 1015.8 |
| 20260901005006 | 17 | 113 | 0.0 | 3.2 | 0.00 | 0.08 | 0.00 | 92 | 1015.8 |
| 20260901004505 | 17 | 113 | 0.0 | 3.2 | 0.00 | 0.08 | 0.00 | 92 | 1015.9 |
| 20260901004005 | 17 | 113 | 0.0 | 0.0 | 0.00 | 0.08 | 0.00 | 92 | 1015.9 |
| 20260901003507 | 17 | 113 | 0.0 | 3.2 | 0.00 | 0.08 | 0.00 | 92 | 1015.9 |
| 20260901003007 | 17 | 113 | 0.0 | 3.2 | 0.00 | 0.08 | 0.00 | 92 | 1015.8 |
| 20260901002505 | 17 | 113 | 0.0 | 3.2 | 0.00 | 0.08 | 0.00 | 92 | 1015.8 |
| 20260901002005 | 17 | 113 | 0.0 | 3.2 | 0.00 | 0.08 | 0.00 | 92 | 1015.7 |
| 20260901001508 | 17 | 114 | 0.0 | 3.2 | 0.00 | 0.08 | 0.00 | 92 | 1015.7 |
| 20260901001004 | 17 | 111 | 0.0 | 4.8 | 0.00 | 0.08 | 0.00 | 91 | 1015.6 |
| 20260901000503 | 17 | 113 | 0.0 | 4.8 | 0.00 | 0.08 | 0.00 | 91 | 1015.6 |
| 20260901000003 | 17 | 124 | 0.0 | 3.2 | 0.00 | 0.08 | 0.00 | 91 | 1015.8 |
| 20260831235503 | 17 | 124 | 0.0 | 3.2 | 0.00 | 0.08 | 0.00 | 91 | 1015.8 |
| 20260831235003 | 17 | 125 | 0.0 | 3.2 | 0.00 | 0.08 | 0.00 | 91 | 1015.9 |
| 20260831234502 | 17 | 124 | 0.0 | 3.2 | 0.00 | 0.08 | 0.00 | 91 | 1015.8 |
| 20260831234002 | 17 | 125 | 0.0 | 3.2 | 0.00 | 0.08 | 0.00 | 91 | 1015.8 |
| 20260831233503 | 17 | 125 | 0.0 | 4.8 | 0.00 | 0.08 | 0.00 | 91 | 1015.8 |
| 20260831233002 | 17 | 142 | 0.0 | 3.2 | 0.00 | 0.08 | 0.00 | 91 | 1015.8 |
| 20260831232502 | 17 | 142 | 0.0 | 3.2 | 0.00 | 0.08 | 0.00 | 91 | 1016.0 |
| 20260831232100 | 17 | 142 | 0.0 | 3.2 | 0.00 | 0.08 | 0.00 | 91 | 1016.0 |
| 20260831231603 | 17 | 142 | 0.0 | 4.8 | 0.00 | 0.08 | 0.00 | 90 | 1016.0 |
| 20260831231059 | 17 | 142 | 0.0 | 4.8 | 0.00 | 0.08 | 0.00 | 90 | 1016.1 |
| 20260831230558 | 17 | 142 | 1.6 | 4.8 | 0.00 | 0.08 | 0.00 | 90 | 1016.2 |
| 20260831230059 | 17 | 142 | 0.0 | 6.4 | 0.00 | 0.08 | 0.00 | 90 | 1016.2 |
| 20260831225559 | 17 | 142 | 1.6 | 6.4 | 0.00 | 0.08 | 0.00 | 90 | 1016.2 |
| 20260831225100 | 17 | 148 | 1.6 | 4.8 | 0.00 | 0.08 | 0.00 | 90 | 1016.2 |
| 20260831224558 | 17 | 148 | 1.6 | 4.8 | 0.00 | 0.08 | 0.00 | 90 | 1016.2 |
| 20260831224057 | 17 | 148 | 1.6 | 4.8 | 0.00 | 0.08 | 0.00 | 89 | 1016.2 |
| 20260831223558 | 17 | 149 | 0.0 | 8.0 | 0.00 | 0.08 | 0.00 | 89 | 1016.3 |
| 20260831223100 | 17 | 149 | 0.0 | 3.2 | 0.00 | 0.08 | 0.00 | 89 | 1016.3 |
| 20260831222556 | 17 | 149 | 0.0 | 4.8 | 0.00 | 0.08 | 0.00 | 89 | 1016.4 |
| 20260831222056 | 17 | 149 | 1.6 | 4.8 | 0.00 | 0.08 | 0.00 | 89 | 1016.4 |
| 20260831221556 | 17 | 153 | 3.2 | 8.0 | 0.00 | 0.08 | 0.00 | 89 | 1016.4 |
| 20260831221054 | 17 | 150 | 1.6 | 8.0 | 0.00 | 0.08 | 0.00 | 89 | 1016.4 |
| 20260831220554 | 17 | 169 | 0.0 | 4.8 | 0.00 | 0.08 | 0.00 | 89 | 1016.5 |
| 20260831220054 | 17 | 169 | 1.6 | 4.8 | 0.00 | 0.08 | 0.00 | 88 | 1016.5 |
| 20260831215553 | 17 | 167 | 1.6 | 4.8 | 0.00 | 0.10 | 0.00 | 89 | 1016.6 |
| 20260831215053 | 17 | 147 | 0.0 | 8.0 | 0.00 | 0.10 | 0.00 | 89 | 1016.7 |
| 20260831214604 | 17 | 144 | 3.2 | 8.0 | 0.00 | 0.10 | 0.00 | 89 | 1016.6 |
| 20260831214052 | 17 | 144 | 1.6 | 4.8 | 0.00 | 0.10 | 0.00 | 89 | 1016.6 |
| 20260831213552 | 17 | 141 | 1.6 | 3.2 | 0.00 | 0.10 | 0.00 | 89 | 1016.6 |
| 20260831213100 | 17 | 142 | 1.6 | 4.8 | 0.00 | 0.10 | 0.00 | 89 | 1016.7 |
| 20260831212554 | 17 | 142 | 1.6 | 4.8 | 0.00 | 0.10 | 0.00 | 89 | 1016.6 |
| 20260831212051 | 17 | 142 | 0.0 | 3.2 | 0.00 | 0.10 | 0.00 | 89 | 1016.8 |
| 20260831211551 | 17 | 143 | 0.0 | 3.2 | 0.00 | 0.10 | 0.00 | 89 | 1016.9 |
| 20260831211050 | 17 | 146 | 0.0 | 4.8 | 0.00 | 0.10 | 0.00 | 89 | 1016.8 |
| 20260831210549 | 17 | 146 | 1.6 | 8.0 | 0.00 | 0.10 | 0.00 | 89 | 1016.9 |
| 20260831210049 | 17 | 194 | 3.2 | 8.0 | 0.00 | 0.10 | 0.00 | 88 | 1016.9 |
| 20260831205549 | 17 | 186 | 3.2 | 11.3 | 0.00 | 0.15 | 0.00 | 87 | 1016.9 |
| 20260831205048 | 18 | 198 | 3.2 | 11.3 | 0.00 | 0.15 | 0.00 | 86 | 1017.0 |
| 20260831204554 | 18 | 194 | 3.2 | 9.7 | 0.00 | 0.15 | 0.00 | 86 | 1017.0 |
| 20260831204051 | 18 | 162 | 0.0 | 8.0 | 0.00 | 0.15 | 0.00 | 85 | 1017.0 |
| 20260831203550 | 18 | 163 | 1.6 | 8.0 | 0.00 | 0.15 | 0.00 | 83 | 1017.0 |
| 20260831203058 | 18 | 155 | 0.0 | 8.0 | 0.00 | 0.15 | 0.00 | 82 | 1017.0 |
| 20260831202549 | 18 | 153 | 3.2 | 8.0 | 0.00 | 0.15 | 0.00 | 82 | 1017.0 |
| 20260831202048 | 18 | 100 | 0.0 | 1.6 | 0.00 | 0.15 | 0.00 | 81 | 1017.1 |
| 20260831201556 | 18 | 100 | 0.0 | 1.6 | 0.00 | 0.15 | 0.00 | 81 | 1017.0 |
| 20260831201047 | 18 | 100 | 0.0 | 3.2 | 0.00 | 0.15 | 0.00 | 81 | 1017.0 |
| 20260831200546 | 18 | 100 | 1.6 | 3.2 | 0.00 | 0.15 | 0.00 | 81 | 1017.0 |
| 20260831200046 | 18 | 100 | 1.6 | 3.2 | 0.00 | 0.15 | 0.00 | 80 | 1017.1 |
| 20260831195549 | 18 | 100 | 1.6 | 3.2 | 0.00 | 0.15 | 0.00 | 80 | 1017.1 |
| 20260831195048 | 18 | 100 | 1.6 | 4.8 | 0.00 | 0.15 | 0.00 | 80 | 1017.2 |
| 20260831194546 | 18 | 100 | 1.6 | 4.8 | 0.00 | 0.15 | 0.00 | 80 | 1017.4 |
| 20260831194044 | 18 | 113 | 1.6 | 4.8 | 0.00 | 0.15 | 0.00 | 80 | 1017.3 |
| 20260831193544 | 18 | 113 | 1.6 | 4.8 | 0.00 | 0.15 | 0.00 | 79 | 1017.3 |
| 20260831193113 | 18 | 138 | 1.6 | 4.8 | 0.00 | 0.15 | 0.00 | 79 | 1017.4 |
| 20260831192543 | 18 | 138 | 1.6 | 6.4 | 0.00 | 0.15 | 0.00 | 79 | 1017.5 |
| 20260831192047 | 18 | 138 | 1.6 | 9.7 | 0.00 | 0.15 | 0.00 | 79 | 1017.5 |
| 20260831191543 | 18 | 108 | 0.0 | 9.7 | 0.00 | 0.15 | 0.00 | 79 | 1017.5 |
| 20260831191042 | 18 | 179 | 3.2 | 14.5 | 0.00 | 0.15 | 0.00 | 77 | 1017.6 |
| 20260831190542 | 18 | 146 | 9.7 | 14.5 | 0.00 | 0.15 | 0.00 | 77 | 1017.6 |
| 20260831190046 | 18 | 198 | 4.8 | 11.3 | 0.00 | 0.15 | 0.00 | 77 | 1017.6 |
| 20260831185541 | 19 | 141 | 6.4 | 11.3 | 0.00 | 0.15 | 0.00 | 75 | 1017.7 |
| 20260831185040 | 19 | 157 | 4.8 | 9.7 | 0.00 | 0.15 | 0.00 | 76 | 1017.7 |
| 20260831184540 | 19 | 205 | 4.8 | 9.7 | 0.00 | 0.15 | 0.00 | 74 | 1017.8 |
| 20260831184042 | 19 | 205 | 1.6 | 8.0 | 0.00 | 0.15 | 0.00 | 76 | 1017.8 |
| 20260831183640 | 19 | 212 | 1.6 | 11.3 | 0.00 | 0.15 | 0.00 | 76 | 1017.9 |
| 20260831183044 | 19 | 200 | 6.4 | 11.3 | 0.00 | 0.15 | 0.00 | 77 | 1017.9 |
| 20260831182539 | 19 | 151 | 1.6 | 9.7 | 0.00 | 0.15 | 0.00 | 78 | 1017.9 |
| 20260831182039 | 19 | 189 | 0.0 | 9.7 | 0.00 | 0.15 | 0.00 | 78 | 1018.0 |
| 20260831181550 | 19 | 197 | 4.8 | 8.0 | 0.00 | 0.15 | 0.00 | 76 | 1018.0 |
| 20260831181038 | 19 | 209 | 0.0 | 3.2 | 0.00 | 0.15 | 0.00 | 79 | 1018.2 |
| 20260831180538 | 19 | 208 | 1.6 | 6.4 | 0.00 | 0.15 | 0.00 | 79 | 1018.1 |
| 20260831180039 | 19 | 208 | 0.0 | 6.4 | 0.00 | 0.15 | 0.00 | 79 | 1018.2 |
| 20260831175541 | 19 | 221 | 1.6 | 6.4 | 0.00 | 0.15 | 0.00 | 80 | 1018.2 |
| 20260831175037 | 19 | 227 | 1.6 | 12.9 | 0.00 | 0.15 | 0.00 | 80 | 1018.2 |
| 20260831174537 | 19 | 217 | 0.0 | 12.9 | 0.00 | 0.15 | 0.00 | 80 | 1018.2 |
| 20260831174038 | 19 | 190 | 1.6 | 12.9 | 0.00 | 0.15 | 0.00 | 81 | 1018.3 |
| 20260831173539 | 19 | 202 | 1.6 | 9.7 | 0.00 | 0.15 | 0.00 | 81 | 1018.3 |
| 20260831173036 | 19 | 209 | 1.6 | 9.7 | 0.00 | 0.15 | 0.00 | 80 | 1018.3 |
| 20260831172536 | 19 | 167 | 4.8 | 12.9 | 0.00 | 0.15 | 0.00 | 80 | 1018.4 |
| 20260831172036 | 19 | 238 | 3.2 | 17.7 | 0.00 | 0.15 | 0.00 | 80 | 1018.4 |
| 20260831171536 | 19 | 213 | 6.4 | 17.7 | 0.00 | 0.15 | 0.00 | 79 | 1018.5 |
| 20260831171035 | 19 | 195 | 6.4 | 9.7 | 0.00 | 0.15 | 0.00 | 79 | 1018.4 |
| 20260831170537 | 19 | 188 | 1.6 | 8.0 | 0.00 | 0.15 | 0.00 | 79 | 1018.6 |
| 20260831170036 | 19 | 194 | 1.6 | 9.7 | 0.00 | 0.15 | 0.00 | 79 | 1018.6 |
| 20260831165534 | 19 | 197 | 4.8 | 9.7 | 0.00 | 0.15 | 0.00 | 78 | 1018.6 |
| 20260831165034 | 19 | 131 | 3.2 | 12.9 | 0.00 | 0.15 | 0.00 | 78 | 1018.6 |
| 20260831164549 | 19 | 133 | 4.8 | 12.9 | 0.00 | 0.15 | 0.00 | 78 | 1018.8 |
| 20260831164034 | 19 | 184 | 6.4 | 14.5 | 0.00 | 0.15 | 0.00 | 78 | 1018.8 |
| 20260831163534 | 19 | 137 | 6.4 | 12.9 | 0.00 | 0.15 | 0.00 | 78 | 1018.6 |
| 20260831163033 | 19 | 198 | 6.4 | 11.3 | 0.00 | 0.15 | 0.00 | 78 | 1018.7 |
| 20260831162534 | 19 | 128 | 4.8 | 11.3 | 0.00 | 0.15 | 0.00 | 79 | 1018.6 |
| 20260831162036 | 18 | 134 | 3.2 | 11.3 | 0.00 | 0.15 | 0.00 | 79 | 1018.6 |
| 20260831161551 | 18 | 132 | 4.8 | 12.9 | 0.00 | 0.15 | 0.00 | 79 | 1018.7 |
| 20260831161031 | 18 | 186 | 6.4 | 12.9 | 0.00 | 0.15 | 0.00 | 79 | 1018.7 |
| 20260831160533 | 18 | 155 | 4.8 | 12.9 | 0.00 | 0.15 | 0.00 | 78 | 1018.7 |
| 20260831160034 | 18 | 157 | 6.4 | 16.1 | 0.00 | 0.15 | 0.00 | 77 | 1018.9 |
| 20260831155532 | 18 | 143 | 8.0 | 16.1 | 0.00 | 0.15 | 0.00 | 77 | 1018.8 |
| 20260831155032 | 18 | 138 | 6.4 | 12.9 | 0.00 | 0.15 | 0.00 | 77 | 1018.9 |
| 20260831154531 | 18 | 148 | 6.4 | 14.5 | 0.00 | 0.15 | 0.00 | 78 | 1019.0 |
| 20260831154031 | 18 | 132 | 6.4 | 14.5 | 0.00 | 0.15 | 0.00 | 78 | 1018.8 |
| 20260831153530 | 18 | 207 | 4.8 | 12.9 | 0.00 | 0.15 | 0.00 | 78 | 1018.9 |
| 20260831153030 | 18 | 120 | 4.8 | 14.5 | 0.00 | 0.15 | 0.00 | 78 | 1018.9 |
| 20260831152534 | 18 | 146 | 6.4 | 14.5 | 0.00 | 0.15 | 0.00 | 78 | 1018.8 |
| 20260831152029 | 18 | 135 | 6.4 | 12.9 | 0.00 | 0.15 | 0.00 | 84 | 1018.8 |
| 20260831151529 | 18 | 186 | 4.8 | 12.9 | 0.00 | 0.15 | 0.00 | 80 | 1018.9 |
| 20260831151030 | 18 | 138 | 1.6 | 8.0 | 0.00 | 0.15 | 0.00 | 82 | 1018.9 |
| 20260831150527 | 18 | 203 | 3.2 | 9.7 | 0.00 | 0.15 | 0.00 | 82 | 1019.0 |
| 20260831150028 | 18 | 147 | 1.6 | 9.7 | 0.00 | 0.15 | 0.00 | 82 | 1019.0 |
| 20260831145528 | 18 | 167 | 4.8 | 9.7 | 0.00 | 0.15 | 0.00 | 82 | 1019.0 |
| 20260831145027 | 18 | 188 | 4.8 | 11.3 | 0.00 | 0.15 | 0.00 | 81 | 1019.0 |
| 20260831144528 | 18 | 164 | 6.4 | 11.3 | 0.00 | 0.15 | 0.00 | 81 | 1019.0 |
| 20260831144027 | 18 | 168 | 4.8 | 12.9 | 0.00 | 0.15 | 0.00 | 79 | 1019.0 |
| 20260831143530 | 18 | 151 | 6.4 | 12.9 | 0.00 | 0.15 | 0.00 | 79 | 1019.0 |
| 20260831143027 | 18 | 165 | 4.8 | 9.7 | 0.00 | 0.15 | 0.00 | 81 | 1018.8 |
| 20260831142527 | 18 | 169 | 4.8 | 8.0 | 0.00 | 0.15 | 0.00 | 81 | 1018.7 |
| 20260831142026 | 18 | 175 | 3.2 | 8.0 | 0.00 | 0.15 | 0.00 | 82 | 1018.7 |
| 20260831141531 | 18 | 141 | 3.2 | 9.7 | 0.00 | 0.15 | 0.00 | 82 | 1018.8 |
| 20260831141024 | 18 | 142 | 4.8 | 11.3 | 0.00 | 0.15 | 0.00 | 83 | 1018.7 |
| 20260831140524 | 18 | 139 | 6.4 | 14.5 | 0.00 | 0.15 | 0.00 | 83 | 1018.7 |
| 20260831140023 | 18 | 135 | 8.0 | 14.5 | 0.00 | 0.15 | 0.00 | 83 | 1018.6 |
| 20260831135523 | 18 | 148 | 4.8 | 12.9 | 0.00 | 0.15 | 0.00 | 86 | 1018.5 |
| 20260831135022 | 18 | 140 | 4.8 | 9.7 | 0.00 | 0.15 | 0.00 | 87 | 1018.6 |
| 20260831134520 | 18 | 131 | 4.8 | 9.7 | 0.00 | 0.15 | 0.00 | 87 | 1018.8 |
| 20260831134021 | 17 | 136 | 3.2 | 6.4 | 0.00 | 0.15 | 0.00 | 88 | 1018.8 |
| 20260831133519 | 17 | 128 | 1.6 | 6.4 | 0.00 | 0.15 | 0.00 | 88 | 1018.9 |
| 20260831133019 | 17 | 104 | 1.6 | 4.8 | 0.00 | 0.15 | 0.00 | 88 | 1018.9 |
| 20260831132519 | 17 | 111 | 1.6 | 4.8 | 0.00 | 0.15 | 0.00 | 89 | 1019.0 |
| 20260831132020 | 17 | 99 | 1.6 | 6.4 | 0.00 | 0.15 | 0.00 | 90 | 1019.0 |
| 20260831131525 | 17 | 134 | 3.2 | 8.0 | 0.00 | 0.15 | 0.00 | 91 | 1018.9 |
| 20260831131017 | 17 | 145 | 3.2 | 8.0 | 0.00 | 0.15 | 0.00 | 91 | 1018.8 |
| 20260831130517 | 17 | 150 | 3.2 | 6.4 | 0.00 | 0.15 | 0.00 | 91 | 1018.8 |
| 20260831130023 | 17 | 132 | 1.6 | 4.8 | 0.00 | 0.15 | 0.00 | 91 | 1019.1 |
| 20260831125516 | 17 | 187 | 0.0 | 3.2 | 0.00 | 0.15 | 0.00 | 92 | 1019.1 |
| 20260831125017 | 17 | 188 | 0.0 | 3.2 | 0.00 | 0.15 | 0.00 | 92 | 1018.9 |
| 20260831124516 | 17 | 190 | 0.0 | 3.2 | 0.00 | 0.15 | 0.00 | 92 | 1018.8 |
| 20260831124015 | 17 | 190 | 0.0 | 1.6 | 0.00 | 0.15 | 0.00 | 92 | 1018.8 |
| 20260831123514 | 17 | 190 | 0.0 | 1.6 | 0.00 | 0.15 | 0.00 | 92 | 1018.8 |
| 20260831123021 | 17 | 190 | 0.0 | 0.0 | 0.00 | 0.15 | 0.00 | 92 | 1018.9 |
| 20260831122514 | 17 | 190 | 0.0 | 3.2 | 0.00 | 0.15 | 0.00 | 92 | 1019.0 |
| 20260831122015 | 16 | 190 | 0.0 | 4.8 | 0.00 | 0.15 | 0.00 | 92 | 1018.9 |
| 20260831121520 | 16 | 190 | 0.0 | 3.2 | 0.00 | 0.15 | 0.00 | 92 | 1018.9 |
| 20260831121013 | 16 | 190 | 0.0 | 6.4 | 0.00 | 0.15 | 0.00 | 93 | 1018.8 |
| 20260831120517 | 16 | 192 | 3.2 | 6.4 | 0.00 | 0.15 | 0.00 | 93 | 1018.9 |
| 20260831120014 | 17 | 205 | 0.0 | 4.8 | 0.00 | 0.15 | 0.00 | 93 | 1018.9 |
| 20260831115512 | 17 | 223 | 0.0 | 3.2 | 0.00 | 0.15 | 0.00 | 93 | 1019.0 |
| 20260831115011 | 17 | 224 | 0.0 | 0.0 | 0.00 | 0.15 | 0.00 | 93 | 1019.0 |
| 20260831114510 | 16 | 224 | 0.0 | 0.0 | 0.00 | 0.15 | 0.00 | 94 | 1019.2 |
| 20260831114009 | 16 | 232 | 0.0 | 0.0 | 0.00 | 0.15 | 0.00 | 94 | 1019.2 |
| 20260831113509 | 16 | 175 | 0.0 | 0.0 | 0.00 | 0.15 | 0.00 | 94 | 1019.2 |
| 20260831113010 | 16 | 175 | 0.0 | 0.0 | 0.00 | 0.15 | 0.00 | 94 | 1019.1 |
| 20260831112507 | 16 | 175 | 0.0 | 0.0 | 0.00 | 0.15 | 0.00 | 94 | 1019.1 |
| 20260831112005 | 16 | 175 | 0.0 | 0.0 | 0.00 | 0.15 | 0.00 | 94 | 1019.1 |
| 20260831111505 | 16 | 175 | 0.0 | 0.0 | 0.00 | 0.15 | 0.00 | 94 | 1018.8 |
| 20260831111004 | 16 | 175 | 0.0 | 0.0 | 0.00 | 0.15 | 0.00 | 94 | 1018.8 |
| 20260831110504 | 16 | 175 | 0.0 | 0.0 | 0.00 | 0.15 | 0.00 | 94 | 1018.8 |
| 20260831110004 | 16 | 175 | 0.0 | 0.0 | 0.00 | 0.15 | 0.00 | 94 | 1018.8 |
| 20260831105507 | 16 | 175 | 0.0 | 0.0 | 0.00 | 0.15 | 0.00 | 94 | 1018.7 |
| 20260831105004 | 16 | 175 | 0.0 | 0.0 | 0.00 | 0.15 | 0.00 | 94 | 1018.5 |
| 20260831104513 | 16 | 175 | 0.0 | 0.0 | 0.00 | 0.15 | 0.00 | 94 | 1018.6 |
| 20260831104003 | 16 | 175 | 0.0 | 0.0 | 0.00 | 0.15 | 0.00 | 94 | 1018.6 |
| 20260831103503 | 16 | 198 | 0.0 | 0.0 | 0.00 | 0.15 | 0.00 | 94 | 1018.4 |
| 20260831103013 | 16 | 198 | 0.0 | 3.2 | 0.00 | 0.15 | 0.00 | 94 | 1018.3 |
| 20260831102505 | 16 | 200 | 0.0 | 3.2 | 0.00 | 0.15 | 0.00 | 94 | 1018.4 |
| 20260831102003 | 16 | 197 | 0.0 | 4.8 | 0.00 | 0.15 | 0.00 | 94 | 1018.3 |
| 20260831101503 | 16 | 193 | 1.6 | 4.8 | 0.00 | 0.15 | 0.00 | 94 | 1018.4 |
| 20260831101001 | 16 | 193 | 1.6 | 4.8 | 0.00 | 0.15 | 0.00 | 94 | 1018.3 |
| 20260831100501 | 16 | 194 | 0.0 | 4.8 | 0.00 | 0.15 | 0.00 | 94 | 1018.3 |
| 20260831100001 | 16 | 195 | 0.0 | 3.2 | 0.00 | 0.15 | 0.00 | 94 | 1018.3 |
| 20260831095501 | 16 | 195 | 0.0 | 6.4 | 0.00 | 0.15 | 0.00 | 94 | 1018.2 |
| 20260831095001 | 16 | 195 | 0.0 | 6.4 | 0.00 | 0.15 | 0.00 | 94 | 1018.2 |
| 20260831094501 | 16 | 225 | 0.0 | 0.0 | 0.00 | 0.15 | 0.00 | 94 | 1018.1 |
| 20260831094001 | 16 | 230 | 0.0 | 0.0 | 0.00 | 0.15 | 0.00 | 94 | 1018.1 |
| 20260831093601 | 16 | 230 | 0.0 | 4.8 | 0.00 | 0.15 | 0.00 | 94 | 1018.1 |
| 20260831093113 | 16 | 240 | 1.6 | 4.8 | 0.00 | 0.15 | 0.00 | 94 | 1018.1 |
| 20260831092600 | 16 | 242 | 1.6 | 4.8 | 0.00 | 0.15 | 0.00 | 94 | 1018.2 |
| 20260831092059 | 16 | 254 | 0.0 | 4.8 | 0.00 | 0.15 | 0.00 | 94 | 1018.3 |
| 20260831091602 | 16 | 274 | 0.0 | 0.0 | 0.00 | 0.15 | 0.00 | 94 | 1018.3 |
| 20260831091059 | 16 | 302 | 0.0 | 0.0 | 0.00 | 0.15 | 0.00 | 94 | 1018.1 |
| 20260831090600 | 16 | 302 | 0.0 | 0.0 | 0.00 | 0.15 | 0.00 | 94 | 1018.1 |
| 20260831090123 | 16 | 360 | 0.0 | 0.0 | 0.00 | 0.15 | 0.00 | 94 | 1018.1 |
| 20260831085559 | 16 | 274 | 0.0 | 0.0 | 0.00 | 0.15 | 0.00 | 94 | 1018.1 |
| 20260831085100 | 16 | 303 | 0.0 | 0.0 | 0.00 | 0.15 | 0.00 | 94 | 1018.0 |
| 20260831084557 | 16 | 303 | 0.0 | 0.0 | 0.00 | 0.15 | 0.00 | 94 | 1018.0 |
| 20260831084101 | 16 | 303 | 0.0 | 0.0 | 0.00 | 0.15 | 0.00 | 94 | 1018.2 |
| 20260831083557 | 16 | 303 | 0.0 | 0.0 | 0.00 | 0.15 | 0.00 | 94 | 1018.0 |
| 20260831083109 | 16 | 303 | 0.0 | 0.0 | 0.00 | 0.15 | 0.00 | 94 | 1018.0 |
| 20260831082557 | 16 | 303 | 0.0 | 0.0 | 0.00 | 0.15 | 0.00 | 94 | 1018.1 |
| 20260831082057 | 16 | 360 | 0.0 | 0.0 | 0.00 | 0.15 | 0.00 | 94 | 1018.0 |
| 20260831081601 | 16 | 360 | 0.0 | 0.0 | 0.00 | 0.15 | 0.00 | 94 | 1018.0 |
| 20260831081056 | 16 | 360 | 0.0 | 0.0 | 0.00 | 0.15 | 0.00 | 94 | 1017.9 |
| 20260831080558 | 16 | 360 | 0.0 | 0.0 | 0.00 | 0.15 | 0.00 | 94 | 1018.1 |
| 20260831080126 | 16 | 303 | 0.0 | 0.0 | 0.00 | 0.15 | 0.00 | 94 | 1018.1 |
| 20260831075556 | 16 | 303 | 0.0 | 0.0 | 0.00 | 0.15 | 0.00 | 94 | 1018.1 |
| 20260831075055 | 16 | 303 | 0.0 | 0.0 | 0.00 | 0.15 | 0.00 | 94 | 1018.1 |
| 20260831074555 | 16 | 303 | 0.0 | 0.0 | 0.00 | 0.15 | 0.00 | 94 | 1018.0 |
| 20260831074056 | 16 | 303 | 0.0 | 0.0 | 0.00 | 0.15 | 0.00 | 94 | 1018.1 |
| 20260831073555 | 16 | 303 | 0.0 | 3.2 | 0.00 | 0.15 | 0.00 | 94 | 1018.1 |
| 20260831073055 | 16 | 303 | 0.0 | 3.2 | 0.00 | 0.15 | 0.00 | 94 | 1018.1 |
| 20260831072554 | 16 | 303 | 0.0 | 3.2 | 0.00 | 0.15 | 0.00 | 94 | 1018.1 |
| 20260831072053 | 16 | 302 | 0.0 | 3.2 | 0.00 | 0.15 | 0.00 | 94 | 1018.1 |
| 20260831071555 | 16 | 302 | 0.0 | 4.8 | 0.00 | 0.15 | 0.00 | 94 | 1018.1 |
| 20260831071053 | 16 | 302 | 0.0 | 6.4 | 0.00 | 0.15 | 0.00 | 94 | 1018.1 |
| 20260831070553 | 16 | 303 | 0.0 | 6.4 | 0.00 | 0.15 | 0.00 | 94 | 1018.0 |
| 20260831070053 | 16 | 302 | 0.0 | 3.2 | 0.00 | 0.15 | 0.00 | 94 | 1018.0 |
| 20260831065552 | 16 | 302 | 0.0 | 4.8 | 0.00 | 0.15 | 0.00 | 94 | 1017.9 |
| 20260831065052 | 16 | 302 | 1.6 | 4.8 | 0.00 | 0.15 | 0.00 | 94 | 1017.8 |
| 20260831064552 | 16 | 309 | 0.0 | 0.0 | 0.00 | 0.15 | 0.00 | 94 | 1017.8 |
| 20260831064051 | 16 | 309 | 0.0 | 0.0 | 0.00 | 0.15 | 0.00 | 94 | 1017.9 |